Погода в Ванг-Виенге

Лаос     18˚55′00″N   102˚25′46″E
темп.,
°C
ветер,
м/с
пор.,
м/с
влажн.,
%
обл.,
%
осадки,
мм/ч
давл.,
гПа
погр.,
м
17 января, вс
вс1701:00+15˚св12770 0.0 101430
04:00+15˚ссв128152 0.0 101537
07:00+14˚ссв128631 0.0 101834
10:00+23˚ююз11549 0.1 1020716
13:00+24˚ю115943 0.9 10161148
16:00+19˚юз1188100 0.9 101526
19:00+16˚с1195100 1.7 101727
22:00+16˚всв1195100 0.4 102027
18 января, пн
пн1801:00+14˚св1197100 1.1 102156
04:00+12˚ссв119594 0.5 102153
07:00+10˚ссв119479 0.5 102241
10:00+20˚ссз025014 0.0 1022648
13:00+24˚юз23378 0.0 10181765
16:00+23˚ю224558 0.0 1014978
19:00+15˚всв117350 0.0 101523
22:00+13˚св11793 0.0 101723
19 января, вт
вт1901:00+12˚ссв11846 0.0 101823
04:00+10˚всв01950 0.0 101722
07:00+10˚ссв11940 0.0 101928
10:00+21˚зюз11490 0.0 1018695
13:00+24˚ююз21390 0.0 10141360
16:00+23˚ююз22400 0.0 10101233
19:00+15˚всв11670 0.0 101223
22:00+13˚св11730 0.0 101524
20 января, ср
ср2001:00+13˚ссв11770 0.0 101524
04:00+12˚ссв11784 0.0 101425
07:00+12˚св11792 0.0 101623
10:00+21˚ююз12440 0.0 1016731
13:00+25˚ююз21360 0.0 10121326
16:00+24˚ююз12370 0.0 10091334
19:00+16˚св11620 0.0 101223
22:00+15˚ссв12670 0.0 101428
21 января, чт
чт2101:00+14˚ссв116912 0.0 101425
04:00+14˚ссв1268100 0.0 101428
07:00+13˚ссв1268100 0.0 101526
10:00+24˚ююз113970 0.0 1015737
13:00+26˚ююз213244 0.0 10101773
16:00+26˚ююз12350 0.0 10071595
19:00+18˚св11580 0.0 101023
22:00+16˚св12630 0.0 101227